Tracking 25701 objects as of 4-Jul-2022
HD Live streaming from Space Station
objects crossing your sky now

ATLAS 5 CENTAUR DEB

Track ATLAS 5 CENTAUR DEB now!


NORAD ID: 44846
Int'l Code: 2014-055CE
Perigee: 5,157.2 km
Apogee: 34,311.2 km
Inclination: 20.8 °
Period: 699.6 minutes
Semi major axis: 26105 km
RCS: Unknown
Launch date: September 17, 2014
Source: United States (US)
Launch site: AIR FORCE EASTERN TEST RANGE (AFETR)

Note: This is SATELLITE DEBRIS
aabbcc
Your satellite tracking list
Your tracking list is empty




NASA's NSSDC Master Catalog

Two Line Element Set (TLE):
1 44846U 14055CE  22181.24179233  .00000145  00000-0  00000-0 0  9996
2 44846  20.7804 215.0586 5583956  50.2413 347.1215  2.05831926 21363
Source of the keplerian elements: AFSPC